,,Stat5,,Stat1,,Stat2,,Stat3,,Stat4,,Wind1,,Wind1,
time,status,PA1M_AVG,status,PR1M_SUM,status,RH1M_AVG,status,SR1M_AVG,status,TA1M_AVG,status,W1dAve1m,status,W1sAve1m,
2003-05-11, 00:00:00,VALID,916.582,VALID,0,VALID,95.2025,VALID,0.152827,VALID,20.4571,VALID,288,VALID,0.786458,
2003-05-11, 00:01:00,VALID,916.582,VALID,0,VALID,95.2877,VALID,0.186789,VALID,20.46,VALID,286,VALID,0.384332,
2003-05-11, 00:02:00,VALID,916.565,VALID,0,VALID,94.774,VALID,0.169808,VALID,20.473,VALID,350,VALID,0.601351,
2003-05-11, 00:03:00,VALID,916.553,VALID,0,VALID,94.0415,VALID,0.152827,VALID,20.5153,VALID,23,VALID,0.605699,
2003-05-11, 00:04:00,VALID,916.538,VALID,0,VALID,94.0962,VALID,0.169808,VALID,20.5797,VALID,16,VALID,1.29287,
2003-05-11, 00:05:00,VALID,916.56,VALID,0,VALID,94.0619,VALID,0.152827,VALID,20.6382,VALID,25,VALID,0.796205,
2003-05-11, 00:06:00,VALID,916.581,VALID,0,VALID,93.4566,VALID,0.186789,VALID,20.664,VALID,310,VALID,0.374081,
2003-05-11, 00:07:00,VALID,916.591,VALID,0,VALID,92.1761,VALID,0.152827,VALID,20.6926,VALID,218,VALID,0.501519,
2003-05-11, 00:08:00,VALID,916.583,VALID,0,VALID,92.3172,VALID,0.169808,VALID,20.7797,VALID,26,VALID,0.567057,
2003-05-11, 00:09:00,VALID,916.598,VALID,0,VALID,90.7951,VALID,0.186789,VALID,20.8444,VALID,338,VALID,0.6252,
2003-05-11, 00:10:00,VALID,916.584,VALID,0,VALID,90.3132,VALID,0.0679233,VALID,20.9756,VALID,20,VALID,0.496205,
2003-05-11, 00:11:00,VALID,916.593,VALID,0,VALID,90.3526,VALID,0.0849042,VALID,21.0502,VALID,18,VALID,0.34395,
2003-05-11, 00:12:00,VALID,916.604,VALID,0,VALID,90.2025,VALID,0.101885,VALID,21.0721,VALID,16,VALID,0.0486607,
2003-05-11, 00:13:00,VALID,916.575,VALID,0,VALID,89.6265,VALID,0.0339617,VALID,21.1015,VALID,29,VALID,0.256664,
2003-05-11, 00:14:00,VALID,916.586,VALID,0,VALID,89.5286,VALID,0.101885,VALID,21.1311,VALID,56,VALID,0.0403646,
2003-05-11, 00:15:00,VALID,916.592,VALID,0,VALID,89.7053,VALID,0.0849042,VALID,21.1502,VALID,56,VALID,0.00108507,
2003-05-11, 00:16:00,VALID,916.601,VALID,0,VALID,90.0792,VALID,0.0509425,VALID,21.1634,VALID,58,VALID,0.0785256,
2003-05-11, 00:17:00,VALID,916.608,VALID,0,VALID,89.4218,VALID,0.0679233,VALID,21.1532,VALID,170,VALID,0.422321,
2003-05-11, 00:18:00,VALID,916.593,VALID,0,VALID,90.4518,VALID,0,VALID,21.2025,VALID,192,VALID,0.367788,
2003-05-11, 00:19:00,VALID,916.598,VALID,0,VALID,90.7811,VALID,0.0509425,VALID,21.1691,VALID,169,VALID,0.0834821,
2003-05-11, 00:20:00,VALID,916.613,VALID,0,VALID,91.4398,VALID,0.0509425,VALID,21.1634,VALID,169,VALID,0.0664063,
2003-05-11, 00:21:00,VALID,916.611,VALID,0,VALID,92.1214,VALID,0.0169808,VALID,21.1537,VALID,169,VALID,0,
2003-05-11, 00:22:00,VALID,916.621,VALID,0,VALID,92.2168,VALID,0.0509425,VALID,21.14,VALID,166,VALID,0.150825,
2003-05-11, 00:23:00,VALID,916.595,VALID,0,VALID,91.7272,VALID,0.0679233,VALID,21.0726,VALID,116,VALID,0.451322,
2003-05-11, 00:24:00,VALID,916.559,VALID,0,VALID,91.4055,VALID,0,VALID,21.0206,VALID,86,VALID,0.54933,
2003-05-11, 00:25:00,VALID,916.543,VALID,0,VALID,91.7323,VALID,0.186789,VALID,20.9902,VALID,87,VALID,0.101963,
2003-05-11, 00:26:00,VALID,916.536,VALID,0,VALID,90.9909,VALID,0.20377,VALID,20.9772,VALID,111,VALID,0.275,
2003-05-11, 00:27:00,VALID,916.513,VALID,0,VALID,91.7857,VALID,0.118866,VALID,21.0222,VALID,165,VALID,0.355009,
2003-05-11, 00:28:00,VALID,916.515,VALID,0,VALID,91.9917,VALID,0.152827,VALID,21.0257,VALID,182,VALID,0.27105,
2003-05-11, 00:29:00,VALID,916.514,VALID,0,VALID,90.8294,VALID,0.169808,VALID,21.0034,VALID,227,VALID,0.158854,
2003-05-11, 00:30:00,VALID,916.524,VALID,0,VALID,90.9197,VALID,0.169808,VALID,21.0389,VALID,254,VALID,0.0586939,
2003-05-11, 00:31:00,VALID,916.518,VALID,0,VALID,91.8531,VALID,0.186789,VALID,21.0867,VALID,7,VALID,0.303795,
2003-05-11, 00:32:00,VALID,916.504,VALID,0,VALID,92.5919,VALID,0.118866,VALID,21.1222,VALID,23,VALID,0.573117,
2003-05-11, 00:33:00,VALID,916.477,VALID,0,VALID,92.4164,VALID,0.186789,VALID,21.0772,VALID,37,VALID,0.841741,
2003-05-11, 00:34:00,VALID,916.455,VALID,0,VALID,92.8437,VALID,0.186789,VALID,21.016,VALID,16,VALID,0.863281,
2003-05-11, 00:35:00,VALID,916.456,VALID,0,VALID,93.1349,VALID,0.169808,VALID,20.9705,VALID,25,VALID,0.399306,
2003-05-11, 00:36:00,VALID,916.453,VALID,0,VALID,93.3065,VALID,0.186789,VALID,20.9255,VALID,29,VALID,0.325955,
2003-05-11, 00:37:00,VALID,916.451,VALID,0,VALID,92.9683,VALID,0.20377,VALID,20.8767,VALID,39,VALID,0.482572,
2003-05-11, 00:38:00,VALID,916.429,VALID,0,VALID,92.7941,VALID,0.118866,VALID,20.8605,VALID,38,VALID,0.541964,
2003-05-11, 00:39:00,VALID,916.418,VALID,0,VALID,92.7941,VALID,0.169808,VALID,20.8479,VALID,27,VALID,0.571715,
2003-05-11, 00:40:00,VALID,916.423,VALID,0,VALID,92.9136,VALID,0.101885,VALID,20.8168,VALID,27,VALID,0.652009,
2003-05-11, 00:41:00,VALID,916.428,VALID,0,VALID,93.318,VALID,0.0169808,VALID,20.823,VALID,27,VALID,0.60455,
2003-05-11, 00:42:00,VALID,916.409,VALID,0,VALID,92.5957,VALID,0.0849042,VALID,20.8004,VALID,18,VALID,0.668837,
2003-05-11, 00:43:00,VALID,916.411,VALID,0,VALID,91.7221,VALID,0.0509425,VALID,20.7944,VALID,17,VALID,0.630208,
2003-05-11, 00:44:00,VALID,916.407,VALID,0,VALID,92.4304,VALID,0.0509425,VALID,20.8268,VALID,27,VALID,0.899439,
2003-05-11, 00:45:00,VALID,916.376,VALID,0,VALID,92.7178,VALID,0.0679233,VALID,20.8101,VALID,22,VALID,0.693527,
2003-05-11, 00:46:00,VALID,916.378,VALID,0,VALID,92.8208,VALID,0,VALID,20.7915,VALID,20,VALID,0.414263,
2003-05-11, 00:47:00,VALID,916.356,VALID,0,VALID,93.0891,VALID,0.0679233,VALID,20.7723,VALID,25,VALID,0.584152,
2003-05-11, 00:48:00,VALID,916.346,VALID,0,VALID,93.2964,VALID,0.0509425,VALID,20.7621,VALID,32,VALID,0.315257,
2003-05-11, 00:49:00,VALID,916.337,VALID,0,VALID,93.3905,VALID,0.0169808,VALID,20.7462,VALID,32,VALID,0.229384,
2003-05-11, 00:50:00,VALID,916.325,VALID,0,VALID,93.3536,VALID,0.0679233,VALID,20.7397,VALID,32,VALID,0.469618,
2003-05-11, 00:51:00,VALID,916.329,VALID,0,VALID,93.201,VALID,0.0509425,VALID,20.7098,VALID,51,VALID,0.483774,
2003-05-11, 00:52:00,VALID,916.3,VALID,0,VALID,92.7127,VALID,0.0169808,VALID,20.7074,VALID,53,VALID,0.107813,
2003-05-11, 00:53:00,VALID,916.297,VALID,0,VALID,92.6033,VALID,0.101885,VALID,20.7069,VALID,53,VALID,0.184896,
2003-05-11, 00:54:00,VALID,916.301,VALID,0,VALID,92.5919,VALID,0.0679233,VALID,20.7303,VALID,53,VALID,0.181473,
2003-05-11, 00:55:00,VALID,916.28,VALID,0,VALID,92.5792,VALID,0.0169808,VALID,20.7591,VALID,53,VALID,0,
2003-05-11, 00:56:00,VALID,916.282,VALID,0,VALID,92.5219,VALID,0.0849042,VALID,20.7683,VALID,53,VALID,0,
2003-05-11, 00:57:00,VALID,916.267,VALID,0,VALID,92.6224,VALID,0.0339617,VALID,20.7855,VALID,53,VALID,0.00108507,
2003-05-11, 00:58:00,VALID,916.264,VALID,0,VALID,92.6402,VALID,0.0339617,VALID,20.7882,VALID,53,VALID,0,
2003-05-11, 00:59:00,VALID,916.251,VALID,0,VALID,93.1132,VALID,0.0849042,VALID,20.8036,VALID,53,VALID,0.133705,
2003-05-11, 01:00:00,VALID,916.276,VALID,0,VALID,93.5176,VALID,0.0169808,VALID,20.8268,VALID,53,VALID,0,
2003-05-11, 01:01:00,VALID,916.257,VALID,0,VALID,93.7961,VALID,0.0509425,VALID,20.8335,VALID,53,VALID,0.00200893,
2003-05-11, 01:02:00,VALID,916.258,VALID,0,VALID,94.3111,VALID,0.0509425,VALID,20.8532,VALID,52,VALID,0.0850184,
2003-05-11, 01:03:00,VALID,916.244,VALID,0,VALID,94.7307,VALID,0.0849042,VALID,20.8591,VALID,52,VALID,0,
2003-05-11, 01:04:00,VALID,916.256,VALID,0,VALID,94.9761,VALID,0.0849042,VALID,20.8624,VALID,52,VALID,0,
2003-05-11, 01:05:00,VALID,916.267,VALID,0,VALID,94.4154,VALID,0.0849042,VALID,20.8111,VALID,51,VALID,0.232572,
2003-05-11, 01:06:00,VALID,916.258,VALID,0,VALID,93.3358,VALID,0.0169808,VALID,20.7459,VALID,51,VALID,0.18192,
2003-05-11, 01:07:00,VALID,916.256,VALID,0,VALID,93.5151,VALID,0.0679233,VALID,20.7484,VALID,51,VALID,0,
2003-05-11, 01:08:00,VALID,916.241,VALID,0,VALID,94.0784,VALID,0.101885,VALID,20.7648,VALID,51,VALID,0,
2003-05-11, 01:09:00,VALID,916.25,VALID,0,VALID,93.8915,VALID,0.0169808,VALID,20.7815,VALID,51,VALID,0,
2003-05-11, 01:10:00,VALID,916.253,VALID,0,VALID,93.5062,VALID,0.169808,VALID,20.774,VALID,51,VALID,0.0457899,
2003-05-11, 01:11:00,VALID,916.266,VALID,0,VALID,93.2646,VALID,0.169808,VALID,20.7511,VALID,51,VALID,0,
2003-05-11, 01:12:00,VALID,916.266,VALID,0,VALID,93.5647,VALID,0.186789,VALID,20.7608,VALID,51,VALID,0,
2003-05-11, 01:13:00,VALID,916.269,VALID,0,VALID,93.852,VALID,0.169808,VALID,20.767,VALID,51,VALID,0,
2003-05-11, 01:14:00,VALID,916.279,VALID,0,VALID,93.6944,VALID,0.135847,VALID,20.7541,VALID,51,VALID,0.0843349,
2003-05-11, 01:15:00,VALID,916.271,VALID,0,VALID,93.6333,VALID,0.118866,VALID,20.7195,VALID,51,VALID,0.184152,
2003-05-11, 01:16:00,VALID,916.27,VALID,0,VALID,93.9563,VALID,0.152827,VALID,20.6894,VALID,51,VALID,0.113511,
2003-05-11, 01:17:00,VALID,916.276,VALID,0,VALID,94.4548,VALID,0.118866,VALID,20.6705,VALID,78,VALID,0.228299,
2003-05-11, 01:18:00,VALID,916.278,VALID,0,VALID,94.8948,VALID,0.169808,VALID,20.6541,VALID,222,VALID,0.36046,
2003-05-11, 01:19:00,VALID,916.281,VALID,0,VALID,95.1643,VALID,0.118866,VALID,20.632,VALID,220,VALID,0.164063,
2003-05-11, 01:20:00,VALID,916.275,VALID,0,VALID,95.2686,VALID,0.101885,VALID,20.6128,VALID,219,VALID,0.0484375,
2003-05-11, 01:21:00,VALID,916.285,VALID,0,VALID,95.2966,VALID,0.152827,VALID,20.5931,VALID,219,VALID,0,
2003-05-11, 01:22:00,VALID,916.295,VALID,0,VALID,95.2559,VALID,0.186789,VALID,20.5571,VALID,219,VALID,0.107366,
2003-05-11, 01:23:00,VALID,916.285,VALID,0,VALID,95.439,VALID,0.118866,VALID,20.5668,VALID,219,VALID,0.00459559,
2003-05-11, 01:24:00,VALID,916.302,VALID,0,VALID,95.6285,VALID,0.186789,VALID,20.5668,VALID,219,VALID,0,
2003-05-11, 01:25:00,VALID,916.327,VALID,0,VALID,95.8014,VALID,0.0679233,VALID,20.5718,VALID,219,VALID,0.104167,
2003-05-11, 01:26:00,VALID,916.338,VALID,0,VALID,96.0456,VALID,0.0509425,VALID,20.5718,VALID,219,VALID,0.101763,
2003-05-11, 01:27:00,VALID,916.348,VALID,0,VALID,96.1727,VALID,0.0849042,VALID,20.5683,VALID,255,VALID,0.169196,
2003-05-11, 01:28:00,VALID,916.376,VALID,0,VALID,96.2058,VALID,0.0169808,VALID,20.5651,VALID,296,VALID,0.180288,
2003-05-11, 01:29:00,VALID,916.388,VALID,0.2,VALID,96.0468,VALID,0.0849042,VALID,20.5263,VALID,214,VALID,0.21942,
2003-05-11, 01:30:00,VALID,916.372,VALID,0,VALID,96.221,VALID,0.0679233,VALID,20.5136,VALID,223,VALID,0.0926011,
2003-05-11, 01:31:00,VALID,916.336,VALID,0,VALID,96.4563,VALID,0.0169808,VALID,20.5039,VALID,43,VALID,0.342014,
2003-05-11, 01:32:00,VALID,916.314,VALID,0,VALID,96.5707,VALID,0.0679233,VALID,20.5198,VALID,43,VALID,0.254123,
2003-05-11, 01:33:00,VALID,916.285,VALID,0,VALID,96.2045,VALID,0.0509425,VALID,20.4648,VALID,60,VALID,0.491982,
2003-05-11, 01:34:00,VALID,916.241,VALID,0,VALID,96.0341,VALID,0.0169808,VALID,20.4298,VALID,79,VALID,0.232589,
2003-05-11, 01:35:00,VALID,916.242,VALID,0,VALID,96.2503,VALID,0.0679233,VALID,20.4098,VALID,66,VALID,0.0182292,
2003-05-11, 01:36:00,VALID,916.305,VALID,0,VALID,96.3965,VALID,0.101885,VALID,20.3972,VALID,138,VALID,0.424777,
2003-05-11, 01:37:00,VALID,916.328,VALID,0,VALID,96.3469,VALID,0,VALID,20.3877,VALID,214,VALID,0.590993,
2003-05-11, 01:38:00,VALID,916.343,VALID,0,VALID,96.4359,VALID,0.0849042,VALID,20.3584,VALID,206,VALID,0.442491,
2003-05-11, 01:39:00,VALID,916.346,VALID,0,VALID,96.5339,VALID,0.0679233,VALID,20.3524,VALID,210,VALID,0.555556,
2003-05-11, 01:40:00,VALID,916.325,VALID,0,VALID,96.6763,VALID,0.135847,VALID,20.3379,VALID,235,VALID,0.481771,
2003-05-11, 01:41:00,VALID,916.305,VALID,0,VALID,96.8454,VALID,0.169808,VALID,20.315,VALID,295,VALID,0.392411,
2003-05-11, 01:42:00,VALID,916.296,VALID,0,VALID,97.2523,VALID,0.101885,VALID,20.3379,VALID,11,VALID,0.14984,
2003-05-11, 01:43:00,VALID,916.288,VALID,0.2,VALID,97.3515,VALID,0.101885,VALID,20.3447,VALID,3,VALID,0.130357,
2003-05-11, 01:44:00,VALID,916.269,VALID,0,VALID,97.3401,VALID,0.135847,VALID,20.3481,VALID,2,VALID,0.767004,
2003-05-11, 01:45:00,VALID,916.246,VALID,0,VALID,97.3782,VALID,0.101885,VALID,20.3347,VALID,22,VALID,0.759332,
2003-05-11, 01:46:00,VALID,916.214,VALID,0,VALID,97.4672,VALID,0.135847,VALID,20.3344,VALID,16,VALID,0.738932,
2003-05-11, 01:47:00,VALID,916.164,VALID,0,VALID,97.3808,VALID,0.135847,VALID,20.2951,VALID,29,VALID,0.559896,
2003-05-11, 01:48:00,VALID,916.13,VALID,0,VALID,97.3006,VALID,0.0849042,VALID,20.2663,VALID,32,VALID,0.55558,
2003-05-11, 01:49:00,VALID,916.122,VALID,0,VALID,97.4036,VALID,0.152827,VALID,20.2822,VALID,10,VALID,0.317508,
2003-05-11, 01:50:00,VALID,916.12,VALID,0,VALID,97.2383,VALID,0.20377,VALID,20.2956,VALID,140,VALID,0.583705,
2003-05-11, 01:51:00,VALID,916.091,VALID,0,VALID,97.1023,VALID,0.118866,VALID,20.2857,VALID,52,VALID,0.493107,
2003-05-11, 01:52:00,VALID,916.074,VALID,0,VALID,97.1976,VALID,0.186789,VALID,20.3048,VALID,15,VALID,0.836806,
2003-05-11, 01:53:00,VALID,916.032,VALID,0,VALID,97.2383,VALID,0.152827,VALID,20.3212,VALID,21,VALID,1.31207,
2003-05-11, 01:54:00,VALID,915.982,VALID,0,VALID,97.2027,VALID,0.152827,VALID,20.3118,VALID,22,VALID,1.1244,
2003-05-11, 01:55:00,VALID,915.939,VALID,0,VALID,97.1557,VALID,0.152827,VALID,20.3121,VALID,7,VALID,0.744643,
2003-05-11, 01:56:00,VALID,915.894,VALID,0,VALID,96.9865,VALID,0.101885,VALID,20.3088,VALID,24,VALID,0.969952,
2003-05-11, 01:57:00,VALID,915.839,VALID,0,VALID,96.8963,VALID,0.118866,VALID,20.3051,VALID,23,VALID,0.726339,
2003-05-11, 01:58:00,VALID,915.815,VALID,0,VALID,96.4703,VALID,0.101885,VALID,20.2892,VALID,278,VALID,0.732307,
2003-05-11, 01:59:00,VALID,915.796,VALID,0,VALID,95.8574,VALID,0.101885,VALID,20.3155,VALID,347,VALID,0.52908,
2003-05-11, 02:00:00,VALID,915.78,VALID,0,VALID,95.8497,VALID,0.118866,VALID,20.3544,VALID,2,VALID,0.162977,
2003-05-11, 02:01:00,VALID,915.763,VALID,0,VALID,96.0812,VALID,0.118866,VALID,20.3835,VALID,2,VALID,0.0641026,
2003-05-11, 02:02:00,VALID,915.781,VALID,0,VALID,95.9591,VALID,0.0509425,VALID,20.3633,VALID,2,VALID,0.0470982,
2003-05-11, 02:03:00,VALID,915.779,VALID,0,VALID,96.0774,VALID,0.135847,VALID,20.3638,VALID,8,VALID,0.209335,
2003-05-11, 02:04:00,VALID,915.759,VALID,0,VALID,96.2986,VALID,0.118866,VALID,20.3608,VALID,19,VALID,1.21719,
2003-05-11, 02:05:00,VALID,915.719,VALID,0,VALID,96.1308,VALID,0.118866,VALID,20.3414,VALID,29,VALID,1.29527,
2003-05-11, 02:06:00,VALID,915.681,VALID,0,VALID,96.2338,VALID,0.152827,VALID,20.2954,VALID,23,VALID,1.09722,
2003-05-11, 02:07:00,VALID,915.661,VALID,0,VALID,96.352,VALID,0.118866,VALID,20.2795,VALID,31,VALID,0.617405,
2003-05-11, 02:08:00,VALID,915.633,VALID,0,VALID,96.4944,VALID,0.135847,VALID,20.267,VALID,28,VALID,1.11278,
2003-05-11, 02:09:00,VALID,915.602,VALID,0,VALID,96.5949,VALID,0.152827,VALID,20.2469,VALID,19,VALID,0.938393,
2003-05-11, 02:10:00,VALID,915.628,VALID,0,VALID,96.7081,VALID,0.0849042,VALID,20.2606,VALID,18,VALID,0.886819,
2003-05-11, 02:11:00,VALID,915.614,VALID,0,VALID,96.7182,VALID,0.101885,VALID,20.2347,VALID,6,VALID,0.479464,
2003-05-11, 02:12:00,VALID,915.611,VALID,0,VALID,96.8073,VALID,0.135847,VALID,20.2447,VALID,13,VALID,1.11328,
2003-05-11, 02:13:00,VALID,915.617,VALID,0,VALID,96.7755,VALID,0.118866,VALID,20.2514,VALID,17,VALID,1.06858,
2003-05-11, 02:14:00,VALID,915.626,VALID,0,VALID,96.7284,VALID,0.0849042,VALID,20.2178,VALID,6,VALID,0.875,
2003-05-11, 02:15:00,VALID,915.629,VALID,0,VALID,96.7577,VALID,0.118866,VALID,20.2118,VALID,20,VALID,0.634014,
2003-05-11, 02:16:00,VALID,915.621,VALID,0,VALID,96.7399,VALID,0.0509425,VALID,20.1927,VALID,16,VALID,0.791071,
2003-05-11, 02:17:00,VALID,915.602,VALID,0,VALID,96.75,VALID,0.152827,VALID,20.177,VALID,14,VALID,0.453125,
2003-05-11, 02:18:00,VALID,915.59,VALID,0,VALID,96.9204,VALID,0.135847,VALID,20.17,VALID,23,VALID,0.632813,
2003-05-11, 02:19:00,VALID,915.571,VALID,0,VALID,97.0463,VALID,0.0849042,VALID,20.1797,VALID,19,VALID,0.671186,
2003-05-11, 02:20:00,VALID,915.581,VALID,0,VALID,97.1035,VALID,0.152827,VALID,20.1932,VALID,17,VALID,0.544488,
2003-05-11, 02:21:00,VALID,915.582,VALID,0,VALID,97.0819,VALID,0.101885,VALID,20.1636,VALID,1,VALID,0.48329,
2003-05-11, 02:22:00,VALID,915.586,VALID,0,VALID,97.0743,VALID,0.118866,VALID,20.1544,VALID,349,VALID,0.35637,
2003-05-11, 02:23:00,VALID,915.58,VALID,0,VALID,97.0387,VALID,0.135847,VALID,20.1437,VALID,355,VALID,0.691741,
2003-05-11, 02:24:00,VALID,915.576,VALID,0,VALID,97.0984,VALID,0.101885,VALID,20.1345,VALID,5,VALID,0.889022,
2003-05-11, 02:25:00,VALID,915.554,VALID,0,VALID,97.0857,VALID,0.118866,VALID,20.1218,VALID,8,VALID,1.28147,
2003-05-11, 02:26:00,VALID,915.531,VALID,0,VALID,97.1709,VALID,0.118866,VALID,20.1215,VALID,13,VALID,0.863741,
2003-05-11, 02:27:00,VALID,915.516,VALID,0,VALID,97.3006,VALID,0.0849042,VALID,20.1312,VALID,15,VALID,0.877821,
2003-05-11, 02:28:00,VALID,915.506,VALID,0,VALID,97.3108,VALID,0.118866,VALID,20.1243,VALID,8,VALID,0.61849,
2003-05-11, 02:29:00,VALID,915.507,VALID,0,VALID,97.2612,VALID,0.135847,VALID,20.1019,VALID,298,VALID,0.375,
2003-05-11, 02:30:00,VALID,915.549,VALID,0,VALID,97.3986,VALID,0.135847,VALID,20.1051,VALID,325,VALID,0.196429,
2003-05-11, 02:31:00,VALID,915.575,VALID,0,VALID,97.4647,VALID,0.152827,VALID,20.0949,VALID,289,VALID,0.299279,
2003-05-11, 02:32:00,VALID,915.579,VALID,0,VALID,97.3973,VALID,0.169808,VALID,20.083,VALID,138,VALID,0.484152,
2003-05-11, 02:33:00,VALID,915.56,VALID,0,VALID,97.4939,VALID,0.101885,VALID,20.086,VALID,359,VALID,0.207721,
2003-05-11, 02:34:00,VALID,915.547,VALID,0,VALID,97.6338,VALID,0.135847,VALID,20.1183,VALID,296,VALID,0.501085,
2003-05-11, 02:35:00,VALID,915.561,VALID,0,VALID,97.6338,VALID,0.135847,VALID,20.1118,VALID,277,VALID,0.820095,
2003-05-11, 02:36:00,VALID,915.537,VALID,0,VALID,97.6389,VALID,0.118866,VALID,20.0991,VALID,173,VALID,0.826322,
2003-05-11, 02:37:00,VALID,915.529,VALID,0,VALID,97.6872,VALID,0.135847,VALID,20.0894,VALID,285,VALID,0.630804,
2003-05-11, 02:38:00,VALID,915.54,VALID,0,VALID,97.4265,VALID,0.0849042,VALID,20.0897,VALID,251,VALID,1.94972,
2003-05-11, 02:39:00,VALID,915.563,VALID,0,VALID,97.4189,VALID,0.135847,VALID,20.0795,VALID,289,VALID,0.805804,
2003-05-11, 02:40:00,VALID,915.585,VALID,0,VALID,97.3019,VALID,0.118866,VALID,20.0897,VALID,258,VALID,0.647289,
2003-05-11, 02:41:00,VALID,915.608,VALID,0,VALID,97.3795,VALID,0.101885,VALID,20.0889,VALID,280,VALID,0.18099,
2003-05-11, 02:42:00,VALID,915.603,VALID,0,VALID,97.4253,VALID,0.135847,VALID,20.0989,VALID,262,VALID,0.679688,
2003-05-11, 02:43:00,VALID,915.592,VALID,0,VALID,97.307,VALID,0.118866,VALID,20.07,VALID,255,VALID,0.957131,
2003-05-11, 02:44:00,VALID,915.583,VALID,0,VALID,97.2739,VALID,0.0679233,VALID,20.0636,VALID,305,VALID,0.458482,
2003-05-11, 02:45:00,VALID,915.604,VALID,0,VALID,97.4392,VALID,0.118866,VALID,20.0666,VALID,345,VALID,0.631611,
2003-05-11, 02:46:00,VALID,915.59,VALID,0,VALID,97.5639,VALID,0.152827,VALID,20.0765,VALID,32,VALID,0.963839,
2003-05-11, 02:47:00,VALID,915.584,VALID,0,VALID,97.4825,VALID,0.101885,VALID,20.073,VALID,56,VALID,0.952436,
2003-05-11, 02:48:00,VALID,915.585,VALID,0,VALID,97.5918,VALID,0.152827,VALID,20.0728,VALID,16,VALID,0.972005,
2003-05-11, 02:49:00,VALID,915.545,VALID,0,VALID,97.7241,VALID,0.135847,VALID,20.083,VALID,10,VALID,1.48568,
2003-05-11, 02:50:00,VALID,915.521,VALID,0,VALID,97.8385,VALID,0.101885,VALID,20.0802,VALID,21,VALID,1.96995,
2003-05-11, 02:51:00,VALID,915.509,VALID,0,VALID,97.9898,VALID,0.118866,VALID,20.083,VALID,24,VALID,2.09576,
2003-05-11, 02:52:00,VALID,915.471,VALID,0.2,VALID,98.042,VALID,0.0849042,VALID,20.0765,VALID,22,VALID,2.21334,
2003-05-11, 02:53:00,VALID,915.471,VALID,0,VALID,97.9822,VALID,0.101885,VALID,20.0442,VALID,25,VALID,2.42969,
2003-05-11, 02:54:00,VALID,915.411,VALID,0,VALID,97.733,VALID,0.101885,VALID,20.0213,VALID,23,VALID,2.37822,
2003-05-11, 02:55:00,VALID,915.387,VALID,0,VALID,97.6898,VALID,0.0849042,VALID,20.0278,VALID,25,VALID,1.88911,
2003-05-11, 02:56:00,VALID,915.374,VALID,0,VALID,97.7406,VALID,0.0849042,VALID,20.0382,VALID,31,VALID,1.39562,
2003-05-11, 02:57:00,VALID,915.337,VALID,0,VALID,97.6313,VALID,0.0849042,VALID,19.9981,VALID,17,VALID,1.13401,
2003-05-11, 02:58:00,VALID,915.325,VALID,0,VALID,97.6974,VALID,0.0679233,VALID,19.9917,VALID,21,VALID,0.969643,
2003-05-11, 02:59:00,VALID,915.293,VALID,0,VALID,97.7381,VALID,0.0849042,VALID,19.9889,VALID,345,VALID,0.393429,
2003-05-11, 03:00:00,VALID,915.292,VALID,0,VALID,97.7966,VALID,0.101885,VALID,19.9765,VALID,24,VALID,1.91607,
2003-05-11, 03:01:00,VALID,915.235,VALID,0,VALID,97.7991,VALID,0.0169808,VALID,19.9606,VALID,21,VALID,2.7415,
2003-05-11, 03:02:00,VALID,915.222,VALID,0,VALID,97.6363,VALID,0.135847,VALID,19.9375,VALID,18,VALID,2.04449,
2003-05-11, 03:03:00,VALID,915.219,VALID,0,VALID,97.5537,VALID,0.101885,VALID,19.9113,VALID,16,VALID,2.17274,
2003-05-11, 03:04:00,VALID,915.237,VALID,0,VALID,97.5982,VALID,0.0849042,VALID,19.8957,VALID,21,VALID,2.11739,
2003-05-11, 03:05:00,VALID,915.237,VALID,0,VALID,97.5117,VALID,0.101885,VALID,19.8728,VALID,19,VALID,2.49554,
2003-05-11, 03:06:00,VALID,915.218,VALID,0,VALID,97.4939,VALID,0.0679233,VALID,19.8633,VALID,13,VALID,1.90745,
2003-05-11, 03:07:00,VALID,915.207,VALID,0,VALID,97.6007,VALID,0.118866,VALID,19.8469,VALID,22,VALID,1.86362,
2003-05-11, 03:08:00,VALID,915.189,VALID,0,VALID,97.6834,VALID,0.101885,VALID,19.8437,VALID,16,VALID,1.24426,
2003-05-11, 03:09:00,VALID,915.17,VALID,0,VALID,97.5232,VALID,0.118866,VALID,19.8211,VALID,296,VALID,0.632813,
2003-05-11, 03:10:00,VALID,915.172,VALID,0,VALID,97.3909,VALID,0.118866,VALID,19.8141,VALID,240,VALID,0.546224,
2003-05-11, 03:11:00,VALID,915.182,VALID,0,VALID,97.4392,VALID,0.118866,VALID,19.8046,VALID,24,VALID,0.789463,
2003-05-11, 03:12:00,VALID,915.191,VALID,0,VALID,97.4761,VALID,0.101885,VALID,19.8148,VALID,15,VALID,0.553795,
2003-05-11, 03:13:00,VALID,915.182,VALID,0,VALID,97.5257,VALID,0.135847,VALID,19.8041,VALID,7,VALID,0.400841,
2003-05-11, 03:14:00,VALID,915.2,VALID,0,VALID,97.452,VALID,0.118866,VALID,19.8084,VALID,160,VALID,0.248884,
2003-05-11, 03:15:00,VALID,915.194,VALID,0,VALID,97.4748,VALID,0.101885,VALID,19.7952,VALID,177,VALID,0.0526195,
2003-05-11, 03:16:00,VALID,915.206,VALID,0,VALID,97.5562,VALID,0.118866,VALID,19.7952,VALID,111,VALID,0.257161,
2003-05-11, 03:17:00,VALID,915.195,VALID,0,VALID,97.5995,VALID,0.118866,VALID,19.792,VALID,355,VALID,0.849609,
2003-05-11, 03:18:00,VALID,915.192,VALID,0,VALID,97.761,VALID,0.118866,VALID,19.7957,VALID,23,VALID,1.44451,
2003-05-11, 03:19:00,VALID,915.193,VALID,0,VALID,97.8805,VALID,0.135847,VALID,19.8046,VALID,25,VALID,1.06942,
2003-05-11, 03:20:00,VALID,915.206,VALID,0,VALID,97.9136,VALID,0.0849042,VALID,19.8079,VALID,354,VALID,0.617788,
2003-05-11, 03:21:00,VALID,915.211,VALID,0,VALID,97.8067,VALID,0.101885,VALID,19.7788,VALID,322,VALID,0.37567,
2003-05-11, 03:22:00,VALID,915.212,VALID,0,VALID,97.8207,VALID,0.135847,VALID,19.7857,VALID,287,VALID,0.490579,
2003-05-11, 03:23:00,VALID,915.204,VALID,0,VALID,97.8373,VALID,0.101885,VALID,19.8019,VALID,337,VALID,0.717231,
2003-05-11, 03:24:00,VALID,915.19,VALID,0,VALID,97.8385,VALID,0.135847,VALID,19.8017,VALID,19,VALID,1.58984,
2003-05-11, 03:25:00,VALID,915.159,VALID,0,VALID,97.9059,VALID,0.135847,VALID,19.824,VALID,26,VALID,1.75881,
2003-05-11, 03:26:00,VALID,915.135,VALID,0,VALID,97.8652,VALID,0.0679233,VALID,19.8275,VALID,38,VALID,1.1808,
2003-05-11, 03:27:00,VALID,915.135,VALID,0,VALID,97.7966,VALID,0.135847,VALID,19.8273,VALID,356,VALID,0.403446,
2003-05-11, 03:28:00,VALID,915.157,VALID,0,VALID,97.7368,VALID,0.118866,VALID,19.8253,VALID,268,VALID,0.604464,
2003-05-11, 03:29:00,VALID,915.161,VALID,0,VALID,97.5931,VALID,0.0849042,VALID,19.8051,VALID,289,VALID,0.363511,
2003-05-11, 03:30:00,VALID,915.146,VALID,0,VALID,97.6325,VALID,0.135847,VALID,19.831,VALID,6,VALID,0.67513,
2003-05-11, 03:31:00,VALID,915.111,VALID,0,VALID,97.4176,VALID,-0.0339617,VALID,19.8457,VALID,25,VALID,0.64171,
2003-05-11, 03:32:00,VALID,915.084,VALID,0,VALID,97.3324,VALID,0.0169808,VALID,19.8517,VALID,23,VALID,0.552885,
2003-05-11, 03:33:00,VALID,915.059,VALID,0,VALID,97.2867,VALID,0.0169808,VALID,19.8748,VALID,20,VALID,1.31518,
2003-05-11, 03:34:00,VALID,915.048,VALID,0,VALID,97.218,VALID,-0.0339617,VALID,19.8713,VALID,19,VALID,0.672877,